Location: Byszew
(52.1813°N, 19.2693°E)
Time: 06:02:10
(UTC+00:00)

NOAA 18 - Pass Details

Date: 03 July 2022
Orbit: 839 x 860 km, 98.9° (Epoch: 14 August)

Event Time Altitude Azimuth Distance (km) Brightness Sun altitude
Exits shadow 22:14:15 - 230° (SW) 3,423 8.0 -14.6°
Rises 22:14:16 0° 230° (SW) 3,416 8.0 -14.6°
Reaches altitude 10° 22:19:45 10° 275° (W) 2,496 7.8 -14.7°
Maximum altitude 22:20:08 10° 279° (W) 2,492 7.8 -14.7°
Drops below altitude 10° 22:20:31 10° 283° (WNW) 2,498 7.9 -14.7°
Sets 22:26:04 0° 328° (NNW) 3,449 9.6 -14.8°
